User: anonymous   Login
Location: Unspecified
(0.0000°N, 0.0000°E)
Time: 16:06:15
(UTC+00:00)
Language:

MERIDIAN 2 - Orbit

View from above orbital plane
View from above orbital plane
View from above satellite
View from above satellite

Ground track
Ground track

The orbit data is extracted from the following two-line orbital elements,

1 35008U 09029A   17116.56379479 +.00000095 +00000-0 +14674-2 0  9990
2 35008 064.6725 052.8797 7165760 256.0177 338.1876 02.24476636064901
Epoch (UTC): 26 April 2017 13:31:51
Eccentricity: 0.7165760
inclination: 64.6725°
perigee height: 605 km
apogee height: 35916 km
right ascension of ascending node: 52.8797°
argument of perigee: 256.0177°
revolutions per day: 2.24476636
mean anomaly at epoch: 338.1876°
orbit number at epoch: 6490

The dashed part of the orbit path shows where the satellite is in the earth's shadow,  

DLR